Regional Weather Roundup
Issued by NWS

Home | Current Version | Previous Version | Text Only | Print | Product List | Glossary Off
Versions: 1 2 3 4 5 6 7 8 9 10 11 12 13 14 15 16 17 18 19 20 21 22 23 24 25 26 27 28 29 30 31 32 33 34 35 36 37 38 39 40 41 42 43 44 45 46 47 48 49 50

000
ASUS43 KOAX 231510
RWRNE

WEATHER ROUNDUP FOR NEBRASKA
NATIONAL WEATHER SERVICE OMAHA NE
900 AM CST SUN NOV 23 2014

NOTES: SATELLITE DATA IS BEING USED TO AUGMENT CLOUD COVER ABOVE
       12000 FEET.
       "FAIR" INDICATES FEW OR NO CLOUDS BELOW 12,000 FEET WITH NO
       SIGNIFICANT WEATHER AND/OR OBSTRUCTIONS TO VISIBILITY.

  * THESE STATIONS DO NOT REPORT WEATHER SUCH AS RAIN...SNOW OR FOG.

NEZ001>004-019>022-054>056-231600-
NEBRASKA PANHANDLE

CITY           SKY/WX    TMP DP  RH WIND       PRES   REMARKS
SCOTTSBLUFF    CLEAR     30  21  69 W13       29.76R WCI  20
ALLIANCE       PTCLDY    34  17  50 NW23      29.70R WCI  22
CHADRON        CLEAR     30  21  69 W9        29.76R WCI  22
KIMBALL        MOCLDY    30  20  65 NW6       29.73R WCI  24
SIDNEY         PTSUNNY   34  16  47 N18       29.72R WCI  23
$$

NEZ057>060-069>072-079>082-231600-
SOUTHWEST NEBRASKA

CITY           SKY/WX    TMP DP  RH WIND       PRES   REMARKS
NORTH PLATTE   CLOUDY    42  22  44 N14       29.68R
IMPERIAL       CLOUDY    40  18  41 N16       29.70R WCI  31
LEXINGTON      CLOUDY    45  29  54 N21G30    29.63R
MCCOOK         CLOUDY    45  23  42 N23G33    29.66R
OGALLALA       CLOUDY    40  22  48 NW16G24   29.69R WCI  31
$$

NEZ005>010-023>029-035>040-094-231600-
NORTH CENTRAL NEBRASKA

CITY           SKY/WX    TMP DP  RH WIND       PRES   REMARKS
VALENTINE      CLOUDY    38  27  64 NW17      29.67R WCI  28
AINSWORTH      CLOUDY    38  28  66 NW17      29.66R WCI  29
BROKEN BOW     CLOUDY    43  28  55 N21G31    29.64R
O`NEILL        CLOUDY    42  36  80 NW15G24   29.62R
ORD            CLOUDY    43  33  68 NW16G23   29.62R
THEDFORD       CLOUDY    41  25  52 N16G23    29.68R
$$

NEZ041-046>049-061>064-073>077-083>087-231600-
SOUTH CENTRAL NEBRASKA

CITY           SKY/WX    TMP DP  RH WIND       PRES   REMARKS
AURORA         CLOUDY    44  38  80 N15       29.58R
HASTINGS       CLOUDY    44  36  73 N20G29    29.58R
HEBRON         RAIN      48  42  80 NW13G21   29.51R
HOLDREGE       LGT RAIN  41  34  77 N23G39    29.62R
KEARNEY *      CLOUDY    41  34  75 NW31G38   29.63R
YORK           MIX PCPN  45  39  81 N16G26    29.56R
$$

NEZ011>018-030>034-042>045-231600-
NORTHEAST NEBRASKA

CITY           SKY/WX    TMP DP  RH WIND       PRES   REMARKS
NORFOLK        LGT RAIN  43  38  82 NW14G23   29.55R
ALBION         MIX PCPN  42  37  81 N17G26    29.58R
BLAIR          DRIZZLE   53  50  92 S7        29.48S
COLUMBUS *     CLOUDY    45  36  70 N15G25    29.57R
FREMONT        CLOUDY    50  46  87 NW13      29.51R
TEKAMAH        CLOUDY    52  48  86 NW13      29.49R
WAYNE          CLOUDY    43  37  78 N20G25    29.53R
$$

NEZ050>053-065>068-078-088>093-231600-
SOUTHEAST NEBRASKA

CITY           SKY/WX    TMP DP  RH WIND       PRES   REMARKS
LINCOLN        CLOUDY    53  50  89 SW6       29.49F
OMAHA EPPLEY   LGT RAIN  52  51  97 S5        29.49S
BEATRICE       CLOUDY    53  52  97 SW5       29.48F
FALLS CITY     CLOUDY    53  53 100 S7        29.48F FOG
NEBRASKA CITY  CLOUDY    53  52  99 S7        29.48F FOG
PLATTSMOUTH    RAIN      52  50  94 S5        29.48F
$$

NEZ044-045-051>053-067-231600-
OMAHA AREA

CITY           SKY/WX    TMP DP  RH WIND       PRES   REMARKS
OMAHA EPPLEY   LGT RAIN  52  51  97 S5        29.49S
BLAIR          DRIZZLE   53  50  92 S7        29.48S
FREMONT        CLOUDY    50  46  87 NW13      29.51R
MILLARD        DRIZZLE   53  51  93 CALM      29.49S
OFFUTT AFB     CLOUDY    54  52  94 SW3       29.48S
PLATTSMOUTH    RAIN      52  50  94 S5        29.48F
WAHOO          LGT RAIN  49  44  81 NW14G23   29.50R
$$



USA.gov is the U.S. government's official web portal to all federal, state and local government web resources and services.